Regional Weather Roundup
Issued by NWS State College, PA

Home | Current Version | Previous Version | Graphics & Text | Print | Product List | Glossary Off
Versions: 1 2 3 4 5 6 7 8 9 10 11 12 13 14 15 16 17 18 19 20 21 22 23 24 25 26 27 28 29 30 31 32 33 34 35 36 37 38 39 40 41 42 43 44 45 46 47 48 49 50

000
ASUS41 KCTP 271003
RWRCTP

REGIONAL WEATHER ROUNDUP
NATIONAL WEATHER SERVICE STATE COLLEGE PA
600 AM EDT THU APR 27 2017

Note: "fair" indicates few or no clouds below 12,000 feet with no
significant weather and/or obstructions to visibility.

* = STATION THAT DOES NOT REPORT PRECIPITATION /E.G. RAIN...SNOW...ETC/
    THUNDER OR FOG.

PAZ002>004-007>009-013>016-020>023-029>032-271100-
WESTERN PENNSYLVANIA

CITY           SKY/WX    TMP DP  RH WIND       PRES   REMARKS
ERIE           CLEAR     66  55  67 S15G23    29.62F
MEADVILLE      CLEAR     61  55  81 VRB3      29.67F
FRANKLIN*      CLEAR     55  52  88 SE8       29.71F
NEW CASTLE     NOT AVBL
BEAVER COUNTY  NOT AVBL
BUTLER*        CLEAR     59  55  88 E7        29.70F
PITTSBURGH INT MOCLDY    59  56  89 SE6       29.67F
PITTSBURGH     CLEAR     58  54  86 SE6       29.68F
INDIANA*       CLEAR     57  55  94 E6        29.76S
LATROBE        CLEAR     54  54 100 CALM      29.71F
WASHINGTON CO* CLEAR     54  52  94 SW3       29.70S
$$

PAZ004>006-010>012-017>019-024>028-033>037-041-042-045-046-049>053-271100-
CENTRAL PENNSYLVANIA

CITY           SKY/WX    TMP DP  RH WIND       PRES   REMARKS
BRADFORD       CLEAR     55  55 100 SE8       29.77S
DUBOIS         CLEAR     57  54  89 SE9       29.75S
CLEARFIELD     CLEAR     52  52 100 NE5       29.79R FOG
JOHNSTOWN      CLEAR     56  55  97 SE6       29.78S
ALTOONA        CLOUDY    58  57  97 S6        29.81R
STATE COLLEGE  CLOUDY    57  55  94 CALM      29.80S
WILLIAMSPORT   CLOUDY    59  56  89 SE5       29.81R
SELINSGROVE    CLOUDY    52  52 100 CALM      29.84R FOG
FT INDIANTOWN  MOCLDY    54  54 100 CALM      29.85R FOG
CAPITAL CITY   FOG       56  54  93 CALM      29.85R VSB 1/4
HARRISBURG     FOG       55  55 100 CALM      29.84R VSB 1/4
YORK           CLOUDY    53  53 100 CALM      29.84R FOG
$$

PAZ038>040-043-044-047-048-054-055-060>062-067>071-271100-
EASTERN PENNSYLVANIA

CITY           SKY/WX    TMP DP  RH WIND       PRES   REMARKS
SCRANTON       CLOUDY    58  56  93 CALM      29.84R
MOUNT POCONO   FOG       54  54 100 S5        29.86R VSB 1
ALLENTOWN      CLOUDY    62  55  77 CALM      29.86R
QUAKERTOWN*    CLOUDY    59  57  94 CALM      29.88R
READING        CLOUDY    61  58  90 S5        29.85R
LANCASTER      FOG       54  54 100 E3        29.85R VSB 1/2
COATESVILLE    CLOUDY    59  59 100 S3        29.88R FOG
POTTSTOWN      CLOUDY    58  56  93 CALM      29.87R
BLUE BELL      CLOUDY    55  55 100 CALM      29.88R
DOYLESTOWN     CLOUDY    59  57  93 CALM      29.86R
WILLOW GROVE   NOT AVBL
NORTH PHILA    CLOUDY    61  58  90 CALM      29.89R
PHILADELPHIA   CLOUDY    60  58  92 SE3       29.87
$$




USA.gov is the U.S. government's official web portal to all federal, state and local government web resources and services.